This is the latest recevied weather packets stored in our database for station/object KD8NVS-13. If no packets are shown the sender has not sent any weather packets the latest 10 day(s).
| Time | Temp. | Humidity | Pressure | Rain* | Wind** | Luminosity | Snow |
|---|---|---|---|---|---|---|---|
| 1778164125 | 11.67° C | 53% | 1004.2 hPa | 0 mm | - | 606 W/m² | - |
| 1778163822 | 11.67° C | 55% | 1004.2 hPa | 0 mm | - | 590 W/m² | - |
| 1778163518 | 11.67° C | 54% | 1004.2 hPa | 0 mm | - | 565 W/m² | - |
| 1778163215 | 11.67° C | 55% | 1004.2 hPa | 0 mm | - | 558 W/m² | - |
| 1778162912 | 11.11° C | 58% | 1004.2 hPa | 0 mm | - | 543 W/m² | - |
| 1778162608 | 11.11° C | 56% | 1004.2 hPa | 0 mm | - | 528 W/m² | - |
| 1778162307 | 11.11° C | 56% | 1004.2 hPa | 0 mm | - | 515 W/m² | - |
| 1778162003 | 11.11° C | 58% | 1004.2 hPa | 0 mm | - | 496 W/m² | - |
| 1778161700 | 11.11° C | 58% | 1004.2 hPa | 0 mm | - | 480 W/m² | - |
| 1778161396 | 10.56° C | 59% | 1004.2 hPa | 0 mm | - | 462 W/m² | - |
| 1778161092 | 10.56° C | 60% | 1004.5 hPa | 0 mm | - | 446 W/m² | - |
| 1778160788 | 10.56° C | 59% | 1004.9 hPa | 0 mm | - | 433 W/m² | - |
| 1778160486 | 10.56° C | 62% | 1004.9 hPa | 0 mm | - | 407 W/m² | - |
| 1778160183 | 10° C | 63% | 1004.5 hPa | 0 mm | - | 393 W/m² | - |
| 1778159880 | 10° C | 63% | 1004.5 hPa | 0 mm | - | 375 W/m² | - |
| 1778159577 | 10° C | 65% | 1004.5 hPa | 0 mm | - | 357 W/m² | - |
| 1778159273 | 9.44° C | 69% | 1004.5 hPa | 0 mm | - | 346 W/m² | - |
| 1778158971 | 9.44° C | 70% | 1004.5 hPa | 0 mm | - | 325 W/m² | - |
| 1778158670 | 9.44° C | 71% | 1004.5 hPa | 0 mm | - | 308 W/m² | - |
| 1778158367 | 8.89° C | 71% | 1004.5 hPa | 0 mm | - | 291 W/m² | - |
| 1778158064 | 8.89° C | 72% | 1004.5 hPa | 0 mm | - | 275 W/m² | - |
| 1778157760 | 8.89° C | 72% | 1004.9 hPa | 0 mm | - | 261 W/m² | - |
| 1778157459 | 8.89° C | 74% | 1004.5 hPa | 0 mm | - | 243 W/m² | - |
| 1778157156 | 8.33° C | 75% | 1004.5 hPa | 0 mm | - | 224 W/m² | - |
| 1778156851 | 8.89° C | 76% | 1004.9 hPa | 0 mm | - | 208 W/m² | - |
* Rain latest hour (hover to see other rain measurements)
** Current wind speed in m/s (hover to see current wind gust speed)